Regional Weather Roundup
Issued by NWS

Home | Current Version | Previous Version | Text Only | Print | Product List | Glossary Off
Versions: 1 2 3 4 5 6 7 8 9 10 11 12 13 14 15 16 17 18 19 20 21 22 23 24 25 26 27 28 29 30 31 32 33 34 35 36 37 38 39 40 41 42 43 44 45 46 47 48 49 50

000
ASUS43 KFSD 230310
RWRSD

WEATHER ROUNDUP FOR SOUTH DAKOTA
NATIONAL WEATHER SERVICE SIOUX FALLS SD
1000 PM CDT WED MAR 22 2017

NOTE: "FAIR" INDICATES FEW OR NO CLOUDS BELOW 12,000 FEET WITH NO
SIGNIFICANT WEATHER AND/OR OBSTRUCTIONS TO VISIBILITY.


SDZ001>005-009-010-012>017-230400-
NORTHWEST AND NORTH CENTRAL SOUTH DAKOTA

CITY           SKY/WX    TMP DP  RH WIND       PRES   REMARKS
BUFFALO          N/A     51  38  60 N6        29.72R
MOBRIDGE       CLEAR     41  26  55 SE18G28   29.84F
$$

SDZ012>016-024>037-041>051-057-063-072>074-230400-
SOUTHWEST AND SOUTH CENTRAL SOUTH DAKOTA

CITY           SKY/WX    TMP DP  RH WIND       PRES   REMARKS
RAPID CTY ARPT CLOUDY    46  39  76 W3        29.78S
PIERRE         CLOUDY    48  30  49 SE16      29.87S
CUSTER         CLEAR     48  38  68 SE5       29.85S
ELLSWORTH AFB  CLOUDY    46  41  81 SW6       29.77F
PHILIP         PTCLDY    53  36  52 SE12      29.79R
PINE RIDGE     CLEAR     56  37  49 S28G37    29.81R
SPEARFISH      MOCLDY    48  43  81 CALM      29.79S
WINNER         FAIR      50  29  44 S21G28    29.93R
$$

SDZ004>011-016>023-039-040-230400-
NORTHEAST SOUTH DAKOTA

CITY           SKY/WX    TMP DP  RH WIND       PRES   REMARKS
ABERDEEN       PTCLDY    34  24  67 SE13      30.01F WCI  25
WATERTOWN      CLOUDY    34  24  67 SE18G26   30.07S WCI  23
BROOKINGS      MOCLDY    36  24  62 SE21G29   30.08F
SISSETON         N/A     34  27  75 S23G29    30.09F WCI  22
$$

SDZ017-020-022-023-036>040-048>070-230400-
SOUTHEAST SOUTH DAKOTA

CITY           SKY/WX    TMP DP  RH WIND       PRES   REMARKS
SIOUX FALLS    CLOUDY    39  27  62 SE20      30.13S
HURON          CLOUDY    37  27  67 SE15G25   30.01F
CHAMBERLAIN    CLOUDY    43  29  57 SE14      29.95S
MITCHELL       CLOUDY    41  29  62 SE25G31   30.04R
YANKTON        CLOUDY    43  27  52 SE18G24   30.08S
$$

ABBREVIATIONS USED IN REMARKS
   TC - TEMPERATURE IN CELSIUS
  WCI - WIND CHILL INDEX
   HX - HEAT INDEX
  VSB - VISIBILITY




USA.gov is the U.S. government's official web portal to all federal, state and local government web resources and services.